TIANYAN 01

Last updated on Mon Nov 03 2025 00:03:21 GMT+0000 (Coordinated Universal Time)

1 44881U 19093C 25306.50181897 .00001353 00000+0 16087-3 0 9998 2 44881 97.7801 19.0278 0015044 110.6185 249.6646 14.85959988317747
UTC large
Height (km)
Speed (km/s)
/
Latitude / Longitude
Inclination (degrees)
Orbital Period (minutes)
Azimuth
Elevation
Range (km)
Doppler Factor

Next 0 passes for location: London (51.5072 / 0.1276)

Sorry there are no passes over London.